Find SkySat C10

NORAD ID: 42988 Int'l Des: 2017-068 Owner: PLABST Country: US operational
LEOCIRCULARRETROGRADESSO

リアルタイム位置

3D地球を読み込み中...

SkySat C10について

説明を読み込み中...

次回通過

Passes for default location (London). Set your location on the main map for personalized predictions.

高度履歴

Loading altitude history...

軌道要素

1 42988U 17068B 26105.28209663 .00005075 00000-0 15906-3 0 9994
2 42988 97.4403 241.6057 0001296 115.2967 244.8409 15.33534615472712
Epoch: Apr 15, 2026 • Age: 5 hours

現在のステータス

高度 477.8 km
速度 7.63 km/s
衛星直下点 -31.06°S, 127.34°W
打ち上げ日 Oct 31, 2017
運用期間 8.4 years
タイプ earth observation

技術仕様

分類 Payload
質量 110.00 kg
乾燥質量 110.00 kg
総質量 110.00 kg
長さ 1.20 m
直径 0.50 m
スパン 0.50 m
形状 Box
製造者 SSLMAX
バスタイプ SkySat-Gen2
フェーズステータス In Orbit
所有者/国 PLABST/US

Most Searched